[[{"header":{"parameterUnit":"m.s-1","parameterCategory":1,"la1":30.2991,"la2":30.254,"lo1":-89.0895,"lo2":-89.0444,"dy":0.0017,"dx":0.0017,"nx":28,"ny":28,"refTime":"2025-07-20T09:00:00:Z","depth":0,"parameterNumber":2,"parameterNumberName":"U-component_of_WINDS"},"data":[0,0,0,0,0,0,0,0,0,0,0,0,0,0,0,0,0,0,0,0,0,0,0,0,0,0,0,0,0,0,0,0,0,0,0,0,0,0,0,0,0,0,0,0,0,0,0,0,0,0,0,0,0,0,0,0,0,0,0.6248,0.6249,0,0.6393,0.6395,0.6397,0.6482,0.6482,0.6482,0.6483,0.6635,0.6638,0.6642,0,0,0,0,0,0,0,0,0,0,0,0,0,0.6046,0.6049,0.6248,0.6249,0.6251,0.6393,0.6395,0.6397,0.6482,0.6482,0.6482,0.6483,0.6634,0.6638,0.6642,0,0,0,0,0,0,0,0,0,0,0,0,0,0.6157,0.605,0.6247,0.631,0.6318,0.6393,0.6395,0.6398,0.6482,0.6482,0.6483,0.6483,0.6632,0.6637,0.6643,0.6667,0,0,0.666,0.6663,0,0,0,0,0,0,0,0,0.615,0.6164,0.6299,0.6306,0.6314,0.642,0.638,0.6488,0.6481,0.6419,0.6483,0.6483,0.6563,0.6574,0.6601,0.6675,0.6681,0.6661,0.6664,0.6666,0.6668,0,0,0,0,0,0,0,0.6142,0.6158,0.6305,0.6301,0.631,0.6333,0.6349,0.6401,0.6487,0.6425,0.6431,0.6447,0.6567,0.6595,0.6605,0.6683,0.666,0.6665,0.6669,0.6671,0.6786,0.6785,0,0,0,0,0,0,0.6124,0.6151,0.6301,0.631,0.6232,0.6336,0.6354,0.6385,0.6486,0.6502,0.6447,0.6451,0.6585,0.6598,0.661,0.6646,0.6666,0.6672,0.6675,0.6786,0.6786,0.6785,0,0,0,0,0,0,0.612,0.6137,0.6295,0.6232,0.6254,0.6339,0.6373,0.6388,0.6416,0.6503,0.6519,0.6459,0.6586,0.6603,0.6653,0.6652,0.6674,0.6679,0.6786,0.6786,0.6785,0.6716,0,0,0,0,0,0,0.6113,0.6135,0.6144,0.6232,0.6257,0.6333,0.6373,0.6391,0.6425,0.6432,0.6519,0.6534,0.6588,0.6644,0.6658,0.666,0.6684,0.6787,0.6786,0.6786,0.6719,0.6714,0.6709,0,0,0,0,0,0.6106,0.6119,0.6144,0.6161,0.627,0.6333,0.6348,0.6409,0.6425,0.6435,0.6491,0.6531,0.665,0.6648,0.6665,0.6669,0.6787,0.6786,0.6786,0.6721,0.6715,0.6709,0,0,0,0,0,0,0.6029,0.6132,0.616,0.6202,0.6258,0.6347,0.6362,0.64,0.6453,0.6457,0.6532,0.6551,0.6594,0.6637,0.6633,0.6699,0.6723,0.6726,0.6668,0.6663,0.6658,0.6646,0.6688,0,0,0,0,0,0.6017,0.6059,0.6146,0.6175,0.6201,0.6277,0.6306,0.6349,0.641,0.6435,0.6494,0.6553,0.6604,0.6636,0.6688,0.6726,0.6747,0.6737,0.6732,0.6728,0.6729,0.6753,0.675,0.6783,0.6783,0.6783,0,0,0.5993,0.6054,0.6075,0.6161,0.6209,0.6251,0.6296,0.6339,0.6371,0.6442,0.6492,0.6538,0.6609,0.6653,0.6675,0.669,0.6725,0.6727,0.6722,0.6726,0.6752,0.6749,0.6746,0.6783,0.6783,0.6783,0,0,0.5969,0.6019,0.6049,0.6096,0.6169,0.6219,0.6226,0.631,0.6343,0.6395,0.6449,0.6489,0.6575,0.6623,0.6659,0.6655,0.6694,0.667,0.6643,0.6666,0.6663,0.6661,0.666,0.6658,0.6671,0.6671,0.6671,0,0.5929,0.5994,0.6059,0.6099,0.6135,0.62,0.6231,0.6275,0.6361,0.6385,0.64,0.6509,0.6562,0.6618,0.6617,0.6644,0.6655,0.666,0.6658,0.6657,0.6656,0.6655,0.6655,0.6668,0.6668,0.6668,0.6669,0,0.5942,0.5986,0.6001,0.6082,0.612,0.6155,0.6226,0.6258,0.6297,0.6346,0.6398,0.6464,0.653,0.6547,0.6586,0.6609,0.6616,0.6644,0.667,0.6648,0.6649,0.6649,0.6663,0.6664,0.6665,0.6666,0,0,0.5872,0.5989,0.5994,0.6031,0.6117,0.6153,0.6192,0.6256,0.6281,0.6339,0.6373,0.6445,0.6471,0.6512,0.6557,0.6577,0.657,0.6603,0.6606,0.6594,0.66,0.6577,0.6576,0.6596,0.6597,0.6597,0.6593,0,0.5861,0.5932,0.5992,0.6042,0.6084,0.6147,0.6181,0.6238,0.6285,0.6328,0.6381,0.6431,0.6462,0.6487,0.6509,0.6566,0.6572,0.6567,0.663,0.6631,0.6609,0.6577,0.6553,0.6547,0.6594,0.6594,0.6594,0,0.5857,0.5911,0.5964,0.6046,0.6066,0.6095,0.6159,0.62,0.6266,0.6299,0.6344,0.6392,0.6437,0.6459,0.6522,0.6517,0.6547,0.6579,0.658,0.6588,0.661,0.6583,0.6546,0.6545,0.6596,0.6595,0.6595,0,0.58,0.5887,0.593,0.596,0.6057,0.6076,0.6118,0.6184,0.6219,0.6276,0.6299,0.636,0.6394,0.644,0.6504,0.6514,0.656,0.6588,0.659,0.6588,0.6595,0.6594,0.6563,0.6616,0.6616,0.6616,0.6616,0,0.578,0.581,0.5906,0.5932,0.5968,0.6038,0.6072,0.6119,0.6178,0.6215,0.6275,0.6309,0.6391,0.6435,0.6486,0.653,0.6545,0.6574,0.6586,0.6568,0.6564,0.6587,0.6589,0.6615,0.6615,0.6615,0.6616,0,0.5722,0.5787,0.5839,0.5926,0.5949,0.5972,0.6048,0.6076,0.6127,0.6174,0.6189,0.6269,0.6324,0.6393,0.647,0.6504,0.6543,0.6563,0.652,0.6528,0.6525,0.6524,0.6507,0.6508,0.656,0.656,0.6559,0,0.5704,0.5729,0.5819,0.5848,0.5888,0.5934,0.597,0.6041,0.6076,0.6153,0.6173,0.6233,0.6284,0.637,0.6435,0.6495,0.6517,0.6507,0.6526,0.6506,0.6516,0.6513,0.6516,0.6501,0.65,0.6499,0.6499,0,0.5666,0.5697,0.5746,0.5807,0.5848,0.59,0.5954,0.5974,0.6056,0.6093,0.615,0.619,0.6269,0.6327,0.6396,0.644,0.6483,0.6492,0.6496,0.6476,0.645,0.6464,0.6506,0.6492,0.6493,0.6493,0.6494,0.6494,0.5628,0.5652,0.572,0.5773,0.5821,0.587,0.5902,0.5957,0.6005,0.6074,0.6114,0.6169,0.6237,0.6333,0.6375,0.6421,0.6436,0.6441,0.6443,0.6442,0.6436,0.6444,0.6434,0.6434,0.6434,0.6434,0.6435,0,0.5592,0.5639,0.5687,0.576,0.5802,0.5839,0.5901,0.5934,0.5982,0.6041,0.609,0.6156,0.6214,0.6284,0.6347,0.637,0.6391,0.6384,0.6382,0.6392,0.6419,0.641,0.6365,0.6365,0.6365,0.6365,0.6365,0.6365,0.5578,0.5622,0.5661,0.573,0.5778,0.5832,0.5864,0.5911,0.5958,0.6028,0.6076,0.6122,0.6186,0.6254,0.6309,0.6328,0.6348,0.6334,0.636,0.6384,0.639,0.6395,0.6387,0.6338,0.6338,0.6329,0.6328,0.6328]},{"header":{"parameterUnit":"m.s-1","parameterCategory":1,"la1":30.2991,"la2":30.254,"lo1":-89.0895,"lo2":-89.0444,"dy":0.0017,"dx":0.0017,"nx":28,"ny":28,"refTime":"2025-07-20T09:00:00:Z","depth":0,"parameterNumber":3,"parameterNumberName":"V-component_of_WINDS"},"data":[0,0,0,0,0,0,0,0,0,0,0,0,0,0,0,0,0,0,0,0,0,0,0,0,0,0,0,0,0,0,0,0,0,0,0,0,0,0,0,0,0,0,0,0,0,0,0,0,0,0,0,0,0,0,0,0,0,0,3.9932,3.9932,0,3.9886,3.9886,3.9885,3.9867,3.9867,3.9867,3.9868,3.9814,3.9813,3.9811,0,0,0,0,0,0,0,0,0,0,0,0,0,3.9999,3.9998,3.9932,3.9932,3.9931,3.9886,3.9886,3.9885,3.9867,3.9867,3.9867,3.9868,3.9815,3.9813,3.9811,0,0,0,0,0,0,0,0,0,0,0,0,0,3.9963,3.9997,3.9932,3.9917,3.9915,3.9886,3.9886,3.9885,3.9867,3.9867,3.9867,3.9868,3.9815,3.9813,3.9811,3.9792,0,0,3.9803,3.9802,0,0,0,0,0,0,0,0,3.9965,3.996,3.992,3.9918,3.9916,3.9883,3.989,3.9854,3.9867,3.9885,3.9868,3.9868,3.9836,3.9832,3.9823,3.979,3.9787,3.9803,3.9802,3.9801,3.98,0,0,0,0,0,0,0,3.9968,3.9962,3.9914,3.9919,3.9917,3.991,3.9906,3.9883,3.986,3.9884,3.9882,3.9877,3.9835,3.9825,3.9822,3.9786,3.9803,3.9801,3.98,3.9799,3.9735,3.9735,0,0,0,0,0,0,3.9973,3.9965,3.9915,3.9912,3.9942,3.9909,3.9904,3.9893,3.986,3.9855,3.9877,3.9877,3.9829,3.9824,3.982,3.9796,3.9801,3.9799,3.9797,3.9735,3.9735,3.9735,0,0,0,0,0,0,3.9975,3.9969,3.9917,3.9938,3.9931,3.9908,3.9896,3.9892,3.9882,3.9855,3.9851,3.9872,3.9829,3.9823,3.9799,3.9794,3.9798,3.9796,3.9736,3.9735,3.9735,3.9748,0,0,0,0,0,0,3.9977,3.997,3.9964,3.9938,3.993,3.99,3.9896,3.9891,3.9879,3.9878,3.9849,3.9844,3.9829,3.9803,3.9797,3.979,3.9794,3.9736,3.9735,3.9735,3.9748,3.9748,3.9748,0,0,0,0,0,3.9979,3.9968,3.9964,3.9958,3.9923,3.9899,3.9894,3.9879,3.9879,3.9872,3.9854,3.9845,3.9795,3.9801,3.9794,3.9787,3.9736,3.9736,3.9735,3.9748,3.9748,3.9748,0,0,0,0,0,0,3.9991,3.9964,3.9959,3.994,3.9922,3.9896,3.9887,3.9879,3.986,3.9859,3.9839,3.9832,3.9811,3.9796,3.9803,3.9767,3.9765,3.9763,3.9777,3.9777,3.9777,3.9781,3.9792,0,0,0,0,0,3.9992,3.9978,3.9954,3.9939,3.9931,3.9911,3.99,3.989,3.987,3.9861,3.9842,3.9822,3.9801,3.9788,3.9768,3.9746,3.9739,3.9737,3.9737,3.9737,3.9736,3.9722,3.9721,3.9732,3.9732,3.9732,0,0,3.9993,3.9976,3.9968,3.9941,3.9926,3.991,3.9904,3.9887,3.9874,3.9858,3.9836,3.9821,3.9796,3.9773,3.9762,3.976,3.9731,3.9737,3.9737,3.9735,3.9721,3.972,3.972,3.9732,3.9732,3.9732,0,0,3.9986,3.9972,3.9959,3.9944,3.9923,3.991,3.9906,3.9882,3.9872,3.985,3.9837,3.982,3.9786,3.9769,3.9756,3.9743,3.9734,3.9737,3.9737,3.9724,3.9723,3.9723,3.9718,3.9716,3.9735,3.9735,3.9735,0,3.9989,3.9966,3.9952,3.9936,3.9924,3.9911,3.9896,3.9882,3.9854,3.9845,3.9844,3.9801,3.9783,3.9756,3.9754,3.9743,3.9738,3.974,3.9725,3.9724,3.9723,3.9718,3.9716,3.9736,3.9736,3.9736,3.9736,0,3.997,3.9954,3.9945,3.9922,3.9908,3.9893,3.9875,3.9863,3.9854,3.984,3.9817,3.9795,3.9771,3.9763,3.9753,3.9735,3.9734,3.973,3.9727,3.9723,3.9718,3.9716,3.9737,3.9736,3.9736,3.9736,0,0,3.9969,3.9939,3.9936,3.9925,3.99,3.9886,3.987,3.9848,3.9838,3.9819,3.9803,3.9775,3.9771,3.9756,3.9743,3.9732,3.9723,3.9729,3.9728,3.9728,3.9701,3.9705,3.9703,3.9717,3.9717,3.9716,3.9703,0,3.9959,3.9931,3.9918,3.9895,3.9879,3.9867,3.9852,3.9834,3.9821,3.9805,3.9789,3.9769,3.9765,3.9756,3.9745,3.9727,3.9717,3.9728,3.9701,3.97,3.9708,3.97,3.9704,3.9692,3.9701,3.97,3.97,0,3.9943,3.9927,3.9903,3.9881,3.9874,3.9861,3.984,3.9825,3.9804,3.9795,3.9779,3.9768,3.9748,3.9747,3.9719,3.9726,3.9714,3.9704,3.9703,3.9699,3.97,3.9696,3.9688,3.9686,3.9697,3.9697,3.9697,0,3.9945,3.9916,3.9899,3.9889,3.9863,3.9854,3.9842,3.9822,3.981,3.9791,3.9782,3.976,3.9748,3.973,3.9712,3.9714,3.9685,3.9683,3.9676,3.9676,3.967,3.9671,3.966,3.9663,3.9663,3.9663,3.9663,0,3.9934,3.992,3.9899,3.9888,3.9871,3.9856,3.9839,3.9826,3.9808,3.9793,3.9779,3.9765,3.9743,3.9725,3.971,3.9689,3.9683,3.9674,3.967,3.9675,3.9676,3.9667,3.9667,3.9662,3.9663,3.9663,3.9663,0,3.9933,3.9919,3.9898,3.9876,3.987,3.9858,3.9838,3.9826,3.9812,3.9793,3.9788,3.9765,3.9744,3.9725,3.9695,3.9686,3.9663,3.9659,3.9671,3.9669,3.9663,3.9663,3.9645,3.9642,3.9647,3.9647,3.9647,0,3.9928,3.9917,3.9894,3.9884,3.9873,3.9857,3.9845,3.9828,3.9816,3.9792,3.9782,3.976,3.9742,3.9708,3.9688,3.9665,3.9659,3.9655,3.9656,3.9661,3.9659,3.966,3.9658,3.9655,3.9655,3.9655,3.9655,0,3.9919,3.9913,3.9897,3.9879,3.9866,3.985,3.9834,3.9826,3.9806,3.9792,3.9772,3.9758,3.9729,3.9707,3.9682,3.9667,3.9657,3.9655,3.9652,3.9656,3.9664,3.966,3.9671,3.9655,3.9655,3.9655,3.9655,3.9655,3.9915,3.9905,3.9888,3.9871,3.9857,3.9842,3.983,3.9816,3.9799,3.9776,3.9767,3.9745,3.9724,3.969,3.9676,3.9657,3.9655,3.9651,3.965,3.9649,3.965,3.9668,3.9653,3.9653,3.9653,3.9653,3.9652,0,3.9906,3.9895,3.9879,3.9858,3.9844,3.9839,3.982,3.9808,3.9791,3.9773,3.9756,3.9731,3.971,3.9689,3.9665,3.9655,3.9649,3.9649,3.9649,3.9646,3.9653,3.9658,3.9654,3.9654,3.9654,3.9654,3.9654,3.9654,3.99,3.9883,3.9874,3.9849,3.9837,3.9818,3.9808,3.9794,3.978,3.9754,3.9737,3.9724,3.9704,3.968,3.9659,3.9653,3.9645,3.9646,3.9639,3.9646,3.9646,3.9646,3.965,3.9645,3.9645,3.9634,3.9633,3.9633]}]]